Back to catalog

STARLINK-33986

AliveCommunicationsVLEO
NORAD 63870·PAYLOAD·🇺🇸 United States

Launched May 10, 2025 from Vandenberg Space Force Base

Loading…

Next Passes (next 24 hours)

TLE

FreshSource: CelesTrak SupGP

Epoch: Sep 15, 2026, 03:22 UTC

1 63870C 25094G   26258.14076389 -.00017245  00000+0 -59994-3 0  2582
2 63870  69.9987 115.1405 0003198 273.4087  39.9954 15.29586390    11

Track STARLINK-33986 in real time with AllMySat

Download on the App Store